Charlotte, NC

8:26 PM EDT on August 25, 2016 (GMT -0400)
Concord Regional

Weather History for KJQF - March, 2012

Change the Weather History Date:

Sunday, March 4, 2012

  Actual Average (KCLT) Record (KCLT)
Temperature  
Mean Temperature 42 °F 48 °F  
Max Temperature 51 °F 59 °F 82 °F (1976)
Min Temperature 33 °F 36 °F 15 °F (1943)
Degree Days  
Heating Degree Days 23 17  
Month to date heating degree days 70  
Since 1 July heating degree days 2769  
Cooling Degree Days 0 0  
Month to date cooling degree days 0  
Year to date cooling degree days 0  
Moisture  
Dew Point 25 °F    
Average Humidity 48    
Maximum Humidity 70    
Minimum Humidity 24    
Precipitation  
Precipitation 0.00 in 0.13 in 1.70 in (1966)
Month to date precipitation 0.52  
Year to date precipitation 7.25  
Snow  
Snow 0.00 in 0.00 in 4.70 in (1931)
Month to date snowfall 0.1  
Since 1 July snowfall 3.8  
Snow Depth -    
Sea Level Pressure  
Sea Level Pressure 29.86 in    
Wind  
Wind Speed 4 mph (NW)    
Max Wind Speed 18 mph    
Max Gust Speed 26 mph    
Visibility 10 miles    
Events      
T = Trace of Precipitation, MM = Missing Value Source: NWS Daily Summary

Daily Weather History Graph

Daily Weather History Graph

Search for Another Location

Airport or City:

Trip Planner

Search our weather history database for the weather conditions in past years. The results will help you decide how hot, cold, wet, or windy it might be!

Date:

Astronomy

Mar. 04, 2012 Rise Set
Actual Time 6:47 AM EST 6:21 PM EST
Civil Twilight 6:22 AM EST 6:46 PM EST
Nautical Twilight 5:53 AM EST 7:16 PM EST
Astronomical Twilight 5:23 AM EST 7:45 PM EST
Moon 2:39 PM EST (3/4) 3:59 AM EST (3/4)
Length of Visible Light 12h 24m
Length of Day
11h 33m
Waxing Gibbous, 83% of the Moon is Illuminated
Mar 4
Waxing Gibbous
Mar 8
Full
Mar 14
Last Quarter
Mar 22
New
Mar 30
First Quarter

Hourly Weather History & Observations

Time (EST) Temp. Windchill Dew Point Humidity Pressure Visibility Wind Dir Wind Speed Gust Speed Precip Events Conditions
12:15 AM 46.4 °F - 33.8 °F 62% 29.80 in 10.0 mi Calm Calm - N/A   Overcast
12:35 AM 46.4 °F - 33.8 °F 62% 29.78 in 10.0 mi Calm Calm - N/A   Overcast
12:55 AM 46.4 °F 45.2 °F 35.6 °F 66% 29.75 in 10.0 mi East 3.5 mph - N/A   Overcast
1:15 AM 46.4 °F - 35.6 °F 66% 29.77 in 10.0 mi Calm Calm - N/A   Overcast
1:35 AM 46.4 °F - 35.6 °F 66% 29.78 in 10.0 mi Calm Calm - N/A   Overcast
1:55 AM 51.8 °F - 28.4 °F 41% 29.75 in 10.0 mi NW 8.1 mph - N/A   Overcast
2:15 AM 50.0 °F - 30.2 °F 47% 29.76 in 10.0 mi NNW 10.4 mph - N/A   Overcast
2:35 AM 50.0 °F - 32.0 °F 50% 29.75 in 10.0 mi NW 4.6 mph - N/A   Mostly Cloudy
2:55 AM 50.0 °F - 32.0 °F 50% 29.74 in 10.0 mi Calm Calm - N/A   Mostly Cloudy
3:15 AM 46.4 °F - 33.8 °F 62% 29.72 in 10.0 mi Calm Calm - N/A   Mostly Cloudy
3:35 AM 46.4 °F - 33.8 °F 62% 29.72 in 10.0 mi Calm Calm - N/A   Scattered Clouds
3:55 AM 46.4 °F - 35.6 °F 66% 29.71 in 10.0 mi Calm Calm - N/A   Scattered Clouds
4:15 AM 46.4 °F - 35.6 °F 66% 29.72 in 10.0 mi Calm Calm - N/A   Scattered Clouds
4:35 AM 46.4 °F 45.2 °F 32.0 °F 57% 29.73 in 10.0 mi NW 3.5 mph - N/A   Mostly Cloudy
4:55 AM 48.2 °F - 32.0 °F 54% 29.72 in 10.0 mi NNW 8.1 mph - N/A   Mostly Cloudy
5:15 AM 48.2 °F - 28.4 °F 46% 29.72 in 10.0 mi NNW 9.2 mph - N/A   Overcast
5:35 AM 48.2 °F - 24.8 °F 40% 29.72 in 10.0 mi NNW 9.2 mph - N/A   Overcast
5:55 AM 48.2 °F - 24.8 °F 40% 29.74 in 10.0 mi NW 5.8 mph - N/A   Overcast
6:15 AM 46.4 °F 43.5 °F 26.6 °F 46% 29.75 in 10.0 mi NW 5.8 mph - N/A   Overcast
6:35 AM 46.4 °F 43.5 °F 24.8 °F 43% 29.76 in 10.0 mi NNW 5.8 mph - N/A   Overcast
6:55 AM 48.2 °F - 24.8 °F 40% 29.77 in 10.0 mi NNW 9.2 mph - N/A   Overcast
7:55 AM 46.4 °F 42.9 °F 23.0 °F 40% 29.81 in 10.0 mi NNW 6.9 mph - N/A   Scattered Clouds
8:55 AM 48.2 °F - 26.6 °F 43% 29.84 in 10.0 mi NNW 9.2 mph 16.1 mph N/A   Clear
9:55 AM 48.2 °F - 24.8 °F 40% 29.84 in 10.0 mi NNW 12.7 mph 18.4 mph N/A   Clear
10:55 AM 51.8 °F - 23.0 °F 33% 29.84 in 10.0 mi WNW 11.5 mph 16.1 mph N/A   Scattered Clouds
11:55 AM 51.8 °F - 21.2 °F 30% 29.84 in 10.0 mi WNW 10.4 mph 18.4 mph N/A   Scattered Clouds
12:55 PM 51.8 °F - 17.6 °F 26% 29.82 in 10.0 mi WNW 13.8 mph 23.0 mph N/A   Scattered Clouds
1:55 PM 51.8 °F - 17.6 °F 26% 29.83 in 10.0 mi West 12.7 mph 21.9 mph N/A   Mostly Cloudy
2:55 PM 51.8 °F - 15.8 °F 24% 29.85 in 10.0 mi NW 18.4 mph 26.5 mph N/A   Mostly Cloudy
3:55 PM 51.8 °F - 15.8 °F 24% 29.88 in 10.0 mi NW 18.4 mph 25.3 mph N/A   Scattered Clouds
4:55 PM 48.2 °F - 14.0 °F 25% 29.91 in 10.0 mi NW 9.2 mph - N/A   Mostly Cloudy
5:55 PM 48.2 °F - 14.0 °F 25% 29.94 in 10.0 mi WNW 16.1 mph 23.0 mph N/A   Scattered Clouds
6:55 PM 44.6 °F 38.8 °F 15.8 °F 31% 29.98 in 10.0 mi West 11.5 mph 17.3 mph N/A   Clear
7:55 PM 42.8 °F 39.3 °F 19.4 °F 39% 30.01 in 10.0 mi West 5.8 mph - N/A   Clear
8:15 PM 41.0 °F 39.0 °F 19.4 °F 42% 30.01 in 10.0 mi West 3.5 mph - N/A   Clear
8:35 PM 41.0 °F 39.0 °F 19.4 °F 42% 30.02 in 10.0 mi WSW 3.5 mph - N/A   Clear
8:55 PM 41.0 °F - 19.4 °F 42% 30.03 in 10.0 mi Calm Calm - N/A   Clear
9:15 PM 41.0 °F - 19.4 °F 42% 30.03 in 10.0 mi Calm Calm - N/A   Clear
9:35 PM 39.2 °F - 21.2 °F 49% 30.04 in 10.0 mi Calm Calm - N/A   Clear
9:55 PM 35.6 °F - 23.0 °F 60% 30.04 in 10.0 mi Calm Calm - N/A   Clear
10:15 PM 33.8 °F - 23.0 °F 65% 30.05 in 10.0 mi Calm Calm - N/A   Clear
10:35 PM 35.6 °F - 23.0 °F 60% 30.05 in 10.0 mi Calm Calm - N/A   Clear
10:55 PM 33.8 °F - 23.0 °F 65% 30.05 in 10.0 mi Calm Calm - N/A   Clear
11:15 PM 33.8 °F - 24.8 °F 70% 30.05 in 10.0 mi Calm Calm - N/A   Clear
11:35 PM 33.8 °F - 24.8 °F 70% 30.04 in 10.0 mi Calm Calm - N/A   Clear
11:55 PM 33.8 °F - 24.8 °F 70% 30.04 in 10.0 mi Calm Calm - N/A   Clear